Location: Unspecified
(40.7921°N, 0.0000°E)
Time: 14:27:35
(UTC+00:00)

MOZHAYETS 4 - Visible Passes

Search period start: 04 April 2026 00:00
Search period end: 14 April 2026 00:00
Orbit: 642 x 659 km, 98.3° (Epoch: 29 March)

Date Brightness Start Highest point End Pass type
(mag) Time Alt. Az. Time Alt. Az. Time Alt. Az.
4 Apr 9.5 04:23:43 10° SE 04:27:46 34° ENE 04:31:50 10° N visible
4 Apr 11.2 19:30:40 10° NW 19:32:10 12° WNW 19:33:40 10° W visible
5 Apr 8.2 04:49:51 10° SSE 04:54:18 66° ENE 04:58:46 10° N visible
6 Apr 11.1 03:42:42 10° E 03:44:48 13° ENE 03:46:54 10° NE visible
7 Apr 10.3 04:07:36 10° ESE 04:11:09 23° ENE 04:14:42 10° NNE visible
7 Apr 10.8 19:12:45 10° NNW 19:15:37 17° WNW 19:18:29 10° WSW visible
8 Apr 9.1 04:33:22 10° SE 04:37:36 43° ENE 04:41:51 10° N visible
9 Apr 7.8 04:59:40 10° SSE 05:04:09 83° ENE 05:08:39 10° NNW visible
10 Apr 10.9 03:51:48 10° ESE 03:54:33 16° ENE 03:57:17 10° NNE visible
10 Apr 10.4 18:55:23 10° NNW 18:59:00 25° WNW 19:02:37 10° WSW visible
11 Apr 9.9 04:17:06 10° SE 04:20:56 29° ENE 04:24:46 10° N visible
11 Apr 11.1 19:23:04 10° NNW 19:25:21 14° WNW 19:27:38 10° W visible
12 Apr 8.6 04:43:03 10° SSE 04:47:24 53° ENE 04:51:46 10° N visible
13 Apr 11.3 03:36:51 10° ENE 03:37:58 11° ENE 03:39:05 10° NE visible
